Location: Altenhof
(50.2418°N, 10.8789°E)
Time: 16:50:28
(UTC+00:00)

Cosmos 2263 - Pass Details

Date: 18 February 2020
Orbit: 832 x 865 km, 70.9° (Epoch: 28 March)

Event Time Altitude Azimuth Distance (km) Brightness Sun altitude
Exits shadow 04:45:57 - 328° (NNW) 3,172 6.9 -16.2°
Reaches altitude 10° 04:47:44 10° 326° (NW) 2,491 6.3 -15.9°
Maximum altitude 04:53:23 63° 247° (WSW) 941 4.2 -15.0°
Drops below altitude 10° 04:58:56 10° 167° (SSE) 2,452 6.8 -14.1°
Sets 05:01:22 0° 164° (SSE) 3,378 7.6 -13.7°
